Houlton, ME

7:57 AM EST on December 17, 2017 (GMT -0500)
Houlton International

Weather History for KHUL - August, 2014

Change the Weather History Date:

Thursday, August 14, 2014

  Actual Average Record
Temperature  
Mean Temperature 62 °F 64 °F  
Max Temperature 66 °F 77 °F 98 °F (1944)
Min Temperature 58 °F 52 °F 39 °F (1941)
Degree Days  
Heating Degree Days 3 3  
Month to date heating degree days 15 30  
Since 1 June heating degree days 181 271  
Since 1 July heating degree days 52 90  
Cooling Degree Days 0 2  
Month to date cooling degree days 24 30  
Year to date cooling degree days 180 150  
Since 1 June cooling degree days 179 146  
Growing Degree Days 10 (Base 50)    
Moisture  
Dew Point 60 °F    
Average Humidity 92    
Maximum Humidity 97    
Minimum Humidity 87    
Precipitation  
Precipitation 1.18 in 0.12 in 2.09 in (1963)
Month to date precipitation 2.05 1.79  
Year to date precipitation 27.15 23.73  
Sea Level Pressure  
Sea Level Pressure 29.78 in    
Wind  
Wind Speed 8 mph (ESE)    
Max Wind Speed 18 mph    
Max Gust Speed 29 mph    
Visibility 4 miles    
Events Rain    
T = Trace of Precipitation, MM = Missing Value Source: NWS Daily Summary

Daily Weather History Graph

Daily Weather History Graph

Search for Another Location

Airport or City:

Trip Planner

Search our weather history database for the weather conditions in past years. The results will help you decide how hot, cold, wet, or windy it might be!

Date:

Astronomy

Aug. 14, 2014 Rise Set
Actual Time 5:29 AM EDT 7:41 PM EDT
Civil Twilight 4:56 AM EDT 8:14 PM EDT
Nautical Twilight 4:15 AM EDT 8:55 PM EDT
Astronomical Twilight 3:29 AM EDT 9:40 PM EDT
Moon 9:43 PM EDT (8/14) 10:19 AM EDT (8/14)
Length of Visible Light 15h 18m
Length of Day
14h 12m
Waning Gibbous, 79% of the Moon is Illuminated
Aug 14
Waning Gibbous
Aug 17
Last Quarter
Aug 25
New
Sep 2
First Quarter
Sep 8
Full

Hourly Weather History & Observations

Time (EDT) Temp. Dew Point Humidity Pressure Visibility Wind Dir Wind Speed Gust Speed Precip Events Conditions
12:53 AM 61.0 °F 57.0 °F 87% 29.86 in 10.0 mi East 4.6 mph - 0.00 in   Mostly Cloudy
1:53 AM 61.0 °F 57.0 °F 87% 29.84 in 8.0 mi East 6.9 mph - 0.00 in Rain Light Rain
2:53 AM 61.0 °F 57.9 °F 90% 29.84 in 7.0 mi East 6.9 mph - 0.07 in Rain Rain
3:47 AM 60.8 °F 59.0 °F 94% 29.81 in 4.0 mi ENE 6.9 mph - 0.17 in Rain Rain
3:53 AM 61.0 °F 59.0 °F 93% 29.81 in 4.0 mi ENE 10.4 mph - 0.19 in Rain Rain
3:57 AM 61.0 °F 59.0 °F 93% 29.80 in 4.0 mi ENE 10.4 mph - 0.02 in Rain Heavy Rain
4:14 AM 61.0 °F 59.0 °F 93% 29.80 in 5.0 mi ENE 8.1 mph - 0.06 in Rain Rain
4:42 AM 61.0 °F 59.0 °F 93% 29.80 in 3.0 mi ENE 5.8 mph - 0.12 in Rain Heavy Rain
4:46 AM 61.0 °F 59.0 °F 93% 29.80 in 2.5 mi Variable 4.6 mph - 0.15 in Rain Heavy Rain
4:53 AM 61.0 °F 59.0 °F 93% 29.81 in 2.0 mi East 4.6 mph - 0.21 in Rain Heavy Rain
5:15 AM 61.0 °F 57.9 °F 90% 29.79 in 3.0 mi East 8.1 mph - 0.08 in Rain Rain
5:17 AM 61.0 °F 57.9 °F 90% 29.78 in 4.0 mi East 5.8 mph - 0.09 in Rain Rain
5:25 AM 61.0 °F 57.9 °F 90% 29.78 in 3.0 mi ENE 5.8 mph - 0.12 in Rain Heavy Rain
5:31 AM 61.0 °F 57.9 °F 90% 29.78 in 4.0 mi ENE 8.1 mph - 0.12 in Rain Light Rain
5:53 AM 61.0 °F 57.9 °F 90% 29.78 in 6.0 mi East 10.4 mph - 0.14 in Rain Rain
6:07 AM 61.0 °F 59.0 °F 93% 29.77 in 2.5 mi East 12.7 mph 21.9 mph 0.03 in Rain Light Rain
6:23 AM 61.0 °F 57.9 °F 90% 29.77 in 3.0 mi East 12.7 mph 25.3 mph 0.06 in Rain Light Rain
6:53 AM 61.0 °F 59.0 °F 93% 29.77 in 4.0 mi East 10.4 mph 18.4 mph 0.07 in Rain Light Rain
7:00 AM 61.0 °F 59.0 °F 93% 29.76 in 5.0 mi East 10.4 mph 21.9 mph 0.00 in Rain Light Rain
7:08 AM 61.0 °F 59.0 °F 93% 29.76 in 2.5 mi East 6.9 mph 17.3 mph 0.01 in Rain Light Rain
7:14 AM 61.0 °F 59.0 °F 93% 29.76 in 1.8 mi East 12.7 mph 19.6 mph 0.05 in Rain Rain
7:30 AM 62.1 °F 59.0 °F 90% 29.76 in 2.0 mi East 10.4 mph - 0.07 in Rain Light Rain
7:40 AM 62.1 °F 59.0 °F 90% 29.76 in 1.8 mi East 8.1 mph - 0.08 in Rain Light Rain
7:48 AM 62.6 °F 59.0 °F 88% 29.76 in 2.0 mi ESE 9.2 mph 17.3 mph 0.09 in Rain Light Rain
7:53 AM 62.1 °F 59.0 °F 90% 29.76 in 2.5 mi ESE 9.2 mph 17.3 mph 0.09 in Rain Light Rain
8:18 AM 62.1 °F 59.0 °F 90% 29.76 in 1.8 mi ESE 10.4 mph 21.9 mph 0.04 in Rain Light Rain
8:25 AM 62.1 °F 60.1 °F 93% 29.76 in 2.5 mi ESE 12.7 mph 19.6 mph 0.05 in Rain Light Rain
8:37 AM 62.1 °F 60.1 °F 93% 29.76 in 1.5 mi ESE 10.4 mph 24.2 mph 0.09 in Rain Rain
8:49 AM 62.6 °F 60.8 °F 94% 29.76 in 2.0 mi ESE 12.7 mph 23.0 mph 0.10 in Rain Light Rain
8:53 AM 62.1 °F 60.1 °F 93% 29.76 in 2.0 mi ESE 13.8 mph 23.0 mph 0.10 in Rain Light Rain
9:08 AM 63.0 °F 60.1 °F 90% 29.76 in 1.8 mi ESE 10.4 mph 19.6 mph 0.02 in Rain Light Rain
9:12 AM 63.0 °F 60.1 °F 90% 29.76 in 2.0 mi ESE 12.7 mph 21.9 mph 0.02 in Rain Light Rain
9:28 AM 63.0 °F 60.1 °F 90% 29.76 in 1.5 mi ESE 10.4 mph 21.9 mph 0.05 in Rain Rain
9:53 AM 63.0 °F 61.0 °F 93% 29.76 in 1.5 mi SE 12.7 mph 23.0 mph 0.11 in Rain Rain
10:36 AM 64.0 °F 61.0 °F 90% 29.75 in 2.5 mi ESE 11.5 mph 24.2 mph 0.08 in Rain Light Rain
10:38 AM 64.0 °F 61.0 °F 90% 29.75 in 3.0 mi SE 11.5 mph 24.2 mph 0.08 in Rain Light Rain
10:53 AM 64.0 °F 61.0 °F 90% 29.75 in 5.0 mi SE 10.4 mph 20.7 mph 0.08 in Rain Light Rain
11:42 AM 64.0 °F 61.0 °F 90% 29.75 in 2.5 mi SE 10.4 mph 24.2 mph 0.01 in Rain Light Rain
11:51 AM 64.4 °F 62.6 °F 94% 29.75 in 3.0 mi SE 10.4 mph 19.6 mph 0.01 in   Overcast
11:53 AM 64.0 °F 62.1 °F 93% 29.76 in 3.0 mi ESE 10.4 mph 19.6 mph 0.01 in Rain Light Rain
12:06 PM 64.0 °F 62.1 °F 93% 29.75 in 2.5 mi SE 12.7 mph 18.4 mph 0.01 in Rain Light Rain
12:21 PM 64.9 °F 62.1 °F 90% 29.75 in 2.5 mi SE 12.7 mph 21.9 mph 0.02 in Rain Light Rain
12:29 PM 64.9 °F 62.1 °F 90% 29.75 in 2.5 mi SE 11.5 mph 21.9 mph 0.02 in Rain Light Rain
12:53 PM 64.9 °F 63.0 °F 93% 29.75 in 1.5 mi ESE 11.5 mph 18.4 mph 0.03 in Rain Rain
1:13 PM 64.9 °F 63.0 °F 93% 29.74 in 1.5 mi ESE 8.1 mph 17.3 mph 0.03 in Rain Rain
1:27 PM 64.9 °F 63.0 °F 93% 29.75 in 2.0 mi SE 13.8 mph 21.9 mph 0.04 in Rain Light Rain
1:39 PM 64.9 °F 63.0 °F 93% 29.75 in 2.5 mi SE 9.2 mph 18.4 mph 0.05 in Rain Light Rain
1:53 PM 64.9 °F 63.0 °F 93% 29.76 in 2.5 mi SSE 10.4 mph 19.6 mph 0.06 in Rain Light Rain
2:08 PM 64.9 °F 63.0 °F 93% 29.75 in 2.5 mi SE 8.1 mph 19.6 mph 0.00 in Rain Light Rain
2:15 PM 64.9 °F 63.0 °F 93% 29.75 in 2.5 mi SE 12.7 mph 28.8 mph 0.01 in Rain Light Rain
2:25 PM 64.9 °F 63.0 °F 93% 29.75 in 3.0 mi SSE 9.2 mph 20.7 mph 0.01 in Rain Light Rain
2:53 PM 64.9 °F 62.1 °F 90% 29.76 in 4.0 mi SSE 15.0 mph 24.2 mph 0.01 in Rain Light Rain
3:53 PM 64.9 °F 62.1 °F 90% 29.76 in 8.0 mi SSE 13.8 mph 23.0 mph 0.00 in   Overcast
4:53 PM 64.0 °F 62.1 °F 93% 29.78 in 4.0 mi SSE 10.4 mph 20.7 mph N/A   Overcast
5:39 PM 64.9 °F 62.1 °F 90% 29.79 in 5.0 mi SSE 11.5 mph 17.3 mph N/A   Overcast
5:53 PM 64.0 °F 62.1 °F 93% 29.79 in 5.0 mi SSE 8.1 mph - N/A   Overcast
6:00 PM 64.0 °F 62.1 °F 93% 29.79 in 3.0 mi South 4.6 mph - 0.01 in Rain Light Rain
6:09 PM 64.0 °F 62.1 °F 93% 29.80 in 8.0 mi Variable 4.6 mph - 0.01 in Rain Light Rain
6:53 PM 64.0 °F 61.0 °F 90% 29.80 in 10.0 mi South 4.6 mph - 0.01 in   Overcast
7:30 PM 64.0 °F 61.0 °F 90% 29.81 in 10.0 mi South 3.5 mph - N/A   Overcast
7:39 PM 63.0 °F 61.0 °F 93% 29.81 in 10.0 mi SSE 4.6 mph - N/A   Overcast
7:49 PM 62.6 °F 60.8 °F 94% 29.81 in 10.0 mi SSE 3.5 mph - N/A   Mostly Cloudy
7:53 PM 63.0 °F 61.0 °F 93% 29.82 in 10.0 mi Calm Calm - N/A   Mostly Cloudy
8:42 PM 59.0 °F 57.9 °F 96% 29.83 in 8.0 mi WSW 3.5 mph - N/A   Mostly Cloudy
8:53 PM 60.1 °F 59.0 °F 96% 29.83 in 7.0 mi Calm Calm - N/A   Mostly Cloudy
9:01 PM 60.1 °F 59.0 °F 96% 29.83 in 9.0 mi SSE 3.5 mph - N/A   Scattered Clouds
9:16 PM 57.9 °F 57.0 °F 97% 29.83 in 1.8 mi West 3.5 mph - N/A   Partly Cloudy
9:25 PM 59.0 °F 57.0 °F 93% 29.84 in 3.0 mi Calm Calm - N/A   Mostly Cloudy
9:53 PM 59.0 °F 57.9 °F 96% 29.84 in 10.0 mi Calm Calm - N/A   Overcast
10:03 PM 60.1 °F 59.0 °F 96% 29.84 in 10.0 mi West 3.5 mph - N/A   Overcast
10:18 PM 61.0 °F 60.1 °F 97% 29.84 in 10.0 mi WNW 3.5 mph - N/A   Overcast
10:53 PM 61.0 °F 57.0 °F 87% 29.84 in 10.0 mi Calm Calm - N/A   Overcast
11:53 PM 59.0 °F 57.0 °F 93% 29.85 in 9.0 mi NW 4.6 mph - N/A   Overcast